GW7047 Weather Reports


time (UTC)temp
F
wind
direction
speed
knots
gust
knots
rain 1hr
in
rain 24hr
in
rain mn
in
humidity
%
barometer
mb
20260510203021 70 301 4.3 9.6 0.00 0.00 0.00 42 1019.9
20260510201521 70 346 3.5 10.4 0.00 0.00 0.00 42 1020.1
20260510200022 71 31 2.6 9.6 0.00 0.00 0.00 42 1020.1
20260510194511 70 28 3.5 9.6 0.00 0.00 0.00 41 1020.2
20260510193014 70 31 3.5 8.7 0.00 0.00 0.00 38 1020.1
20260510191523 70 351 3.5 9.6 0.00 0.00 0.00 42 1020.2
20260510190040 70 44 3.5 8.7 0.00 0.00 0.00 42 1020.4
20260510184528 70 50 4.3 9.6 0.00 0.00 0.00 41 1020.3
20260510181520 69 52 2.6 7.8 0.00 0.00 0.00 42 1020.1
20260510180026 69 46 1.7 8.7 0.00 0.00 0.00 46 1019.8
20260510174526 69 310 4.3 8.7 0.00 0.00 0.00 43 1019.8
20260510173009 68 19 3.5 9.6 0.00 0.00 0.00 44 1019.9
20260510171519 67 82 2.6 10.4 0.00 0.00 0.00 44 1019.8
20260510170022 67 90 4.3 11.3 0.00 0.00 0.00 45 1019.6
20260510164524 65 43 5.2 9.6 0.00 0.00 0.00 46 1019.8
20260510163027 66 46 3.5 10.4 0.00 0.00 0.00 49 1019.7
20260510161515 65 56 3.5 9.6 0.00 0.00 0.00 49 1019.4
20260510160021 65 352 3.5 12.2 0.00 0.00 0.00 53 1019.4
20260510154526 64 105 1.7 9.6 0.00 0.00 0.00 55 1019.1
20260510153040 64 325 1.7 7.0 0.00 0.00 0.00 58 1019.2
20260510151528 64 59 2.6 8.7 0.00 0.00 0.00 57 1019.2
20260510150019 64 90 1.7 8.7 0.00 0.00 0.00 58 1019.4
20260510144542 63 22 3.5 11.3 0.00 0.00 0.00 58 1019.3
20260510143026 63 22 4.3 9.6 0.00 0.00 0.00 61 1019.2
20260510140016 63 28 2.6 7.8 0.00 0.00 0.00 67 1018.5
20260510134520 62 26 5.2 13.9 0.00 0.00 0.00 66 1018.3
20260510131510 61 341 3.5 11.3 0.00 0.00 0.00 74 1018.0
20260510130016 61 65 2.6 7.0 0.00 0.00 0.00 76 1017.7
20260510124521 59 34 0.9 4.3 0.00 0.00 0.00 79 1017.5
20260510123006 57 345 1.7 4.3 0.00 0.00 0.00 82 1017.3
20260510121506 56 325 0.9 2.6 0.00 0.00 0.00 86 1017.2
20260510120017 55 313 0.0 1.7 0.00 0.00 0.00 86 1017.2
20260510114518 54 324 0.0 0.0 0.00 0.00 0.00 87 1016.8
20260510113024 54 300 0.0 0.0 0.00 0.00 0.00 87 1016.5
20260510111506 54 289 0.0 1.7 0.00 0.00 0.00 88 1016.3
20260510110018 54 212 0.0 1.7 0.00 0.00 0.00 85 1015.9
20260510104517 54 210 0.0 1.7 0.00 0.00 0.00 85 1015.9
20260510103023 55 278 0.0 1.7 0.00 0.00 0.00 83 1015.8
20260510101525 55 294 0.0 1.7 0.00 0.00 0.00 83 1015.6
20260510100009 54 312 0.0 0.9 0.00 0.00 0.00 85 1015.3
20260510094516 55 229 0.0 0.9 0.00 0.01 0.00 83 1015.0
20260510093021 56 229 0.0 1.7 0.00 0.01 0.00 82 1014.8
20260510091526 56 321 0.0 1.7 0.00 0.01 0.00 82 1014.9
20260510090026 55 323 0.0 2.6 0.00 0.01 0.00 83 1014.6
20260510080023 55 113 0.0 0.0 0.00 0.01 0.00 83 1014.4
20260510074513 55 113 0.0 0.0 0.00 0.01 0.00 82 1014.2
20260510073017 55 113 0.0 0.0 0.00 0.01 0.00 81 1014.1
20260510071523 55 113 0.0 1.7 0.00 0.01 0.00 81 1014.2
20260510070025 55 113 0.0 0.0 0.00 0.01 0.00 80 1014.2
20260510064523 56 112 0.0 0.9 0.00 0.01 0.00 79 1014.2
20260510063014 56 87 0.0 2.6 0.00 0.01 0.00 78 1014.2
20260510061522 57 84 0.0 0.0 0.00 0.01 0.00 77 1014.1
20260510060035 58 107 0.0 1.7 0.00 0.01 0.00 75 1014.2
20260510054526 59 139 0.0 1.7 0.00 0.01 0.00 72 1014.2
20260510053025 60 247 0.0 1.7 0.00 0.01 0.00 68 1014.3
20260510051517 60 273 0.9 3.5 0.00 0.01 0.00 68 1014.2
20260510041517 58 142 1.7 2.6 0.00 0.01 0.01 74 1013.2
20260510040022 59 116 2.6 6.1 0.00 0.01 0.01 74 1013.0
20260510031515 58 122 0.0 0.0 0.00 0.02 0.01 76 1012.8
20260510030025 59 122 0.0 0.0 0.00 0.03 0.01 74 1012.8
20260510024531 60 122 0.0 0.0 0.00 0.03 0.01 71 1012.4
20260510023007 61 122 0.9 1.7 0.00 0.03 0.01 69 1011.9
20260510021509 62 117 0.9 1.7 0.00 0.03 0.01 72 1011.8
20260510004521 73 200 0.0 0.0 0.00 0.03 0.01 55 1010.6
20260509230011 81 265 1.7 4.3 0.00 0.03 0.01 34 1010.3
20260509221506 81 254 0.0 4.3 0.00 0.03 0.01 32 1010.3
20260509220014 81 222 1.7 4.3 0.00 0.03 0.01 33 1010.2
20260509214515 81 198 2.6 7.8 0.00 0.03 0.01 33 1010.4
20260509213020 81 221 3.5 7.0 0.00 0.03 0.01 33 1010.3
20260509211503 81 15 1.7 7.8 0.00 0.03 0.01 34 1010.5
20260509210009 81 11 2.6 7.0 0.00 0.03 0.01 31 1010.8
20260509204514 81 17 1.7 6.1 0.00 0.03 0.01 32 1010.9